Вернуться в каталог

THORAD DELTA 1 DEB

АктивенSSO
NORAD 8310·DEBRIS·🇺🇸 United States

Запущен Nov 15, 1974 с Vandenberg Space Force Base

Loading…

Ближайшие Пролёты (ближайшие 24 часа)

TLE

СвежийSource: Space-Track

Эпоха: Sep 14, 2026, 08:36 UTC

1 08310U 74089BT  26257.35879587 -.00000023  00000-0  14292-3 0  9991
2 08310 101.5856 232.0967 0067227  51.5393 111.6942 12.40388691346479

Отслеживайте THORAD DELTA 1 DEB в реальном времени с AllMySat

Download on the App Store